DateTimeUTC,F1_A11,F1_S11,BsB_S11,BsG_S11,BsR_S11,BbsB_S11,BbsG_S11,BbsR_S11,BaB_A11,BaG_A11,BaR_A11,Tu_S11,T_S11,Uu_S11,U_S11,P_S11,T1_A11
2021-09-13T00:00:00Z,00000200,20000000,,,,,,,0000.09,0000.48,0000.43,18.4,25.4,01.8,01.2,0659.3,31.1
2021-09-13T00:01:00Z,00000200,20000000,,,,,,,0000.07,-000.02,0000.02,18.4,25.4,01.7,01.1,0659.3,31.1
2021-09-13T00:02:00Z,00000200,20000000,,,,,,,-000.51,-000.30,-000.42,18.4,25.5,01.7,01.1,0659.3,31.1
2021-09-13T00:03:00Z,00000200,60000000,,,,,,,0000.83,0000.95,0000.64,18.4,25.5,01.7,01.1,0659.3,31.0
2021-09-13T00:04:00Z,00000200,41000000,0001.22,0000.21,0000.84,0000.21,0000.21,0000.25,0000.73,0000.36,0000.58,18.5,25.2,01.7,01.2,0660.2,31.1
2021-09-13T00:05:00Z,00000200,01000000,0000.85,0000.99,0000.70,0000.03,-000.04,0000.36,0000.50,0000.60,0000.79,18.5,25.2,01.6,01.1,0660.2,31.0
2021-09-13T00:06:00Z,00000200,01000000,0001.37,0001.06,0001.01,0000.53,0000.21,0000.51,0001.69,0001.37,0001.29,18.5,25.2,01.8,01.2,0660.3,31.0
2021-09-13T00:07:00Z,00000200,01000000,0000.91,0000.81,0000.89,0000.04,0000.73,0000.35,0001.06,0001.18,0000.77,18.5,25.2,01.7,01.1,0660.2,31.0
2021-09-13T00:08:00Z,00000200,01000000,0001.18,0001.12,0000.62,0000.25,-000.01,0000.05,0001.68,0001.69,0001.60,18.4,25.1,01.8,01.2,0660.2,31.0
2021-09-13T00:09:00Z,00000200,00000000,0001.54,0001.42,0001.05,0000.37,0000.29,0000.25,0001.34,0001.69,0001.51,18.4,25.1,01.9,01.3,0660.1,31.0
2021-09-13T00:10:00Z,00000200,01000000,0001.53,0000.66,0000.79,0000.56,0000.20,0000.61,0002.85,0002.30,0002.32,18.4,25.1,02.0,01.3,0660.1,31.0
2021-09-13T00:11:00Z,00000200,00000000,0001.02,0001.35,0001.16,0000.57,0000.39,0000.40,0002.11,0002.20,0002.00,18.4,25.1,02.1,01.4,0660.1,31.0
2021-09-13T00:12:00Z,00000200,00000000,0000.86,0000.85,0000.87,0000.72,0000.45,0000.26,0002.01,0001.84,0001.83,18.4,25.1,02.1,01.4,0660.1,31.0
2021-09-13T00:13:00Z,00000200,00000000,0002.22,0001.16,0001.42,0000.47,0000.56,0000.47,0001.18,0001.44,0001.73,18.5,25.1,02.1,01.4,0660.1,31.0
2021-09-13T00:14:00Z,00000200,00000000,0001.34,0000.91,0000.83,0000.38,0000.37,0000.45,0001.41,0001.49,0001.00,18.5,25.2,02.1,01.4,0660.2,31.0
2021-09-13T00:15:00Z,00000200,00000000,0001.09,0000.83,0000.76,-000.11,0000.23,0000.49,0001.41,0001.22,0001.36,18.5,25.1,02.1,01.4,0660.1,31.0
2021-09-13T00:16:00Z,00000200,00000000,0001.00,0000.94,0001.05,0000.31,0000.20,0000.47,0002.02,0001.81,0001.84,18.6,25.2,02.0,01.3,0660.2,31.0
2021-09-13T00:17:00Z,00000200,00000000,0001.49,0000.80,0001.08,0000.87,0000.24,0000.37,0000.59,0001.20,0001.03,18.5,25.2,01.9,01.3,0660.2,31.0
2021-09-13T00:18:00Z,00000200,00000000,0000.93,0000.39,0000.45,0000.87,0000.05,0000.24,0001.34,0000.62,0000.78,18.5,25.1,02.0,01.3,0660.3,31.1
2021-09-13T00:19:00Z,00000200,01000000,0001.51,0000.35,0000.78,0001.33,0000.56,0000.45,0000.47,0000.85,0001.03,18.5,25.1,01.8,01.2,0660.2,31.0
2021-09-13T00:20:00Z,00000200,01000000,0001.70,0000.87,0000.88,0000.79,0000.26,0000.69,0001.79,0001.19,0001.14,18.4,25.1,01.8,01.2,0660.2,31.0
2021-09-13T00:21:00Z,00000200,01000000,0001.19,0000.97,0000.89,0000.59,0000.28,0000.53,0001.44,0001.89,0001.54,18.4,25.1,01.9,01.3,0660.2,31.0
2021-09-13T00:22:00Z,00000200,01000000,0000.74,0000.51,0000.49,-000.03,0000.51,-000.00,0001.06,0000.93,0001.15,18.4,25.1,01.9,01.3,0660.1,31.0
2021-09-13T00:23:00Z,00000200,00000000,0001.41,0000.89,0000.97,0000.26,0000.56,0000.46,0002.27,0002.37,0001.63,18.4,25.1,02.0,01.3,0660.1,31.0
2021-09-13T00:24:00Z,00000200,00000000,0001.54,0000.84,0001.28,0000.13,0000.39,0000.49,0002.28,0002.30,0002.13,18.4,25.1,02.1,01.4,0660.2,31.0
2021-09-13T00:25:00Z,00000200,00000000,0001.26,0000.69,0000.75,0000.79,0000.12,0000.30,0000.95,0001.05,0001.63,18.4,25.0,02.1,01.4,0660.0,31.0
2021-09-13T00:26:00Z,00000200,00000000,0000.71,0000.80,0000.88,0001.02,0000.50,0000.31,0001.41,0001.00,0000.54,18.4,25.0,02.1,01.4,0660.1,31.0
2021-09-13T00:27:00Z,00000200,01000000,0001.10,0000.99,0001.14,0000.06,0000.58,0000.34,0001.59,0001.61,0001.63,18.4,25.0,02.2,01.4,0660.1,31.0
2021-09-13T00:28:00Z,00000200,00000000,0001.46,0000.63,0001.01,0000.53,0000.07,0000.30,0000.77,0000.89,0001.00,18.5,25.1,02.1,01.4,0660.1,31.1
2021-09-13T00:29:00Z,00000200,01000000,0000.63,0000.95,0000.84,0000.53,0000.41,0000.32,0001.02,0000.67,0000.60,18.6,25.1,02.0,01.4,0660.1,31.1
2021-09-13T00:30:00Z,00000200,01000000,0001.25,0000.59,0000.48,0000.80,0000.61,-000.02,0000.42,0000.89,0000.62,18.6,25.1,01.9,01.3,0660.0,31.0
2021-09-13T00:31:00Z,00000200,01000000,0000.72,0000.68,0000.86,-000.21,0000.54,0000.58,0000.56,0000.65,0000.72,18.6,25.1,01.9,01.3,0660.0,31.1
2021-09-13T00:32:00Z,00000200,01000000,0001.45,0000.96,0000.83,0000.26,0000.14,0000.07,0001.41,0001.19,0001.33,18.6,25.2,01.9,01.3,0660.0,31.1
2021-09-13T00:33:00Z,00000200,01000000,0000.64,0000.81,0000.69,0000.10,0000.03,0000.05,0000.78,0000.81,0000.25,18.6,25.2,01.9,01.2,0659.9,31.1
2021-09-13T00:34:00Z,00000200,01000000,0001.26,0000.84,0001.01,0000.23,0000.27,0000.38,0001.21,0000.72,0001.47,18.6,25.1,01.9,01.3,0660.0,31.0
2021-09-13T00:35:00Z,00000200,00000000,0001.18,0001.09,0001.02,0000.00,0000.50,0000.73,0001.02,0001.51,0001.22,18.6,25.1,01.8,01.2,0660.1,31.0
2021-09-13T00:36:00Z,00000200,01000000,0001.02,0000.59,0000.73,0000.89,0000.22,0000.04,0000.97,0000.59,0000.54,18.5,25.1,01.9,01.2,0660.1,31.0
2021-09-13T00:37:00Z,00000200,01000000,0000.71,0001.23,0000.57,0000.03,0000.37,0000.21,0000.51,0000.77,0000.73,18.5,25.1,01.8,01.2,0660.0,31.0
2021-09-13T00:38:00Z,00000200,01000000,0001.14,0000.82,0001.13,0000.36,-000.09,0000.40,0001.00,0000.80,0000.82,18.5,25.1,01.8,01.2,0660.0,31.0
2021-09-13T00:39:00Z,00000200,01000000,0000.72,0000.40,0001.11,0000.26,0000.54,0000.34,0001.44,0001.05,0001.19,18.5,25.0,01.7,01.2,0660.0,31.0
2021-09-13T00:40:00Z,00000200,01000000,0001.04,0000.69,0001.00,0000.81,0000.13,0000.39,0000.17,0000.31,0000.32,18.4,25.1,01.8,01.2,0660.1,31.0
2021-09-13T00:41:00Z,00000200,01000000,0000.33,0000.57,0000.72,0000.97,0000.36,0000.24,0001.52,0001.83,0001.62,18.4,25.0,01.7,01.1,0660.0,31.0
2021-09-13T00:42:00Z,00000200,01000000,0000.62,0000.72,0000.70,0000.10,0000.39,-000.02,0000.72,0000.63,0000.78,18.5,25.0,01.7,01.1,0660.0,31.0
2021-09-13T00:43:00Z,00000200,01000000,0000.74,0000.76,0000.93,0000.12,0000.11,0000.27,0001.14,0001.25,0001.08,18.5,25.1,01.7,01.1,0660.1,31.0
2021-09-13T00:44:00Z,00000200,01000000,0000.94,0000.77,0000.87,-000.17,0000.14,0000.15,0001.22,0000.92,0000.42,18.5,25.1,01.6,01.1,0660.1,31.0
2021-09-13T00:45:00Z,00000200,01000000,0001.35,0000.65,0000.63,0000.09,0000.53,0000.36,0000.42,0000.35,0000.78,18.6,25.1,01.7,01.2,0660.1,31.1
2021-09-13T00:46:00Z,00000200,01000000,0001.19,0000.76,0000.85,0000.72,0000.38,0000.11,0000.42,0000.68,0000.29,18.6,25.1,01.6,01.1,0660.1,31.0
2021-09-13T00:47:00Z,00000200,01000000,0001.23,0000.73,0000.41,0000.39,0000.21,0000.44,0000.91,0000.64,0000.83,18.5,25.1,01.6,01.1,0660.1,31.0
2021-09-13T00:48:00Z,00000200,01000000,0001.04,0000.73,0000.69,-000.04,0000.26,0000.28,-000.10,0000.14,0000.48,18.5,25.1,01.6,01.0,0660.1,31.0
2021-09-13T00:49:00Z,00000200,01000000,0000.62,0000.52,0000.77,0000.54,0000.35,-000.11,0000.62,0000.58,0000.18,18.5,25.1,01.6,01.0,0660.0,31.0
2021-09-13T00:50:00Z,00000200,01000000,0001.13,0000.74,0000.60,0000.43,0000.31,-000.10,0000.49,0000.64,0000.43,18.4,25.1,01.5,01.0,0660.1,31.0
2021-09-13T00:51:00Z,00000200,01000000,0000.23,0000.40,0000.56,0000.80,0000.52,0000.49,0000.51,0000.19,0000.50,18.4,25.0,01.6,01.1,0660.0,31.0
2021-09-13T00:52:00Z,00000200,01000000,0001.26,0000.63,0000.71,0000.73,0000.31,0000.33,0001.42,0001.90,0001.42,18.4,25.0,01.5,01.0,0660.0,31.0
2021-09-13T00:53:00Z,00000200,01000000,0001.61,0000.18,0000.57,0000.35,0000.34,0000.24,0000.56,0000.10,0000.57,18.4,25.0,01.6,01.0,0660.0,31.0
2021-09-13T00:54:00Z,00000200,01000000,0001.05,0000.75,0000.74,0000.43,0000.32,0000.27,0000.60,0000.67,0000.51,18.4,25.0,01.6,01.1,0660.0,31.0
2021-09-13T00:55:00Z,00000200,01000000,0000.79,0000.58,0000.99,0000.33,-000.16,0000.24,0000.64,0000.23,0000.51,18.4,25.0,01.5,01.0,0660.0,31.0
2021-09-13T00:56:00Z,00000200,01000000,0001.19,0000.64,0000.85,0000.51,0000.35,0000.02,0001.68,0001.99,0001.48,18.4,25.0,01.5,01.0,0660.0,31.0
2021-09-13T00:57:00Z,00000200,41000000,,,,,,,0001.35,0001.52,0001.59,18.4,25.0,01.5,01.0,0660.0,31.0
2021-09-13T00:58:00Z,00000200,60000000,,,,,,,-000.75,-000.90,-000.90,18.3,25.2,01.7,01.1,0659.1,31.1
2021-09-13T00:59:00Z,00000200,20000000,,,,,,,-000.38,-000.43,-000.39,18.3,25.3,01.5,01.0,0659.1,31.1
